Time,TemperatureF,DewpointF,PressureIn,WindDirection,WindDirectionDegrees,WindSpeedMPH,WindSpeedGustMPH,Humidity,HourlyPrecipIn,Conditions,Clouds,dailyrainin,SolarRadiationWatts/m^2,SoftwareType,DateUTC
2013-12-15 18:03:00,0.0,0.0,29.88,SE,135,0.0,0.0,0,0.00,,---,0.00,0.00,VWS V14.01,2013-12-16 00:03:00,
2013-12-15 18:04:00,0.0,0.0,29.88,SE,135,0.0,0.0,0,0.00,,---,0.00,0.00,VWS V14.01,2013-12-16 00:04:00,
2013-12-15 18:05:00,0.0,0.0,29.88,ESE,112,0.0,0.0,0,0.00,,---,0.00,0.00,VWS V14.01,2013-12-16 00:05:00,
2013-12-15 18:10:00,33.8,19.4,29.88,ESE,112,0.0,0.0,55,0.00,,---,0.00,0.00,VWS V14.01,2013-12-16 00:10:00,
2013-12-15 18:15:00,33.8,19.4,29.88,SE,135,0.0,0.0,55,0.00,,---,0.00,0.00,VWS V14.01,2013-12-16 00:15:00,
2013-12-15 18:20:00,33.6,19.6,29.88,SE,135,0.0,0.0,56,0.00,,---,0.00,0.00,VWS V14.01,2013-12-16 00:20:00,
2013-12-15 18:25:00,33.6,20.0,29.88,ESE,112,0.0,0.0,57,0.00,,---,0.00,0.00,VWS V14.01,2013-12-16 00:25:00,
2013-12-15 18:30:00,33.6,20.0,29.88,ESE,112,0.0,2.7,57,0.00,,---,0.00,0.00,VWS V14.01,2013-12-16 00:30:00,
2013-12-15 18:35:00,33.6,20.4,29.85,ESE,112,0.0,0.0,58,0.00,,---,0.00,0.00,VWS V14.01,2013-12-16 00:35:00,
2013-12-15 18:40:00,33.6,20.4,29.85,ESE,112,0.0,0.0,58,0.00,,---,0.00,0.00,VWS V14.01,2013-12-16 00:40:00,
2013-12-15 18:45:00,33.6,20.4,29.85,ESE,112,0.0,0.0,58,0.00,,---,0.00,0.00,VWS V14.01,2013-12-16 00:45:00,
2013-12-15 18:50:00,33.6,20.4,29.85,East,90,0.0,0.0,58,0.00,,---,0.00,0.00,VWS V14.01,2013-12-16 00:50:00,
2013-12-15 18:55:00,33.6,20.4,29.85,ENE,68,0.0,0.0,58,0.00,,---,0.00,0.00,VWS V14.01,2013-12-16 00:55:00,
2013-12-15 19:00:00,33.6,20.4,29.88,ENE,68,0.0,0.0,58,0.00,,---,0.00,0.00,VWS V14.01,2013-12-16 01:00:00,
2013-12-15 19:05:00,33.4,20.3,29.88,ENE,68,0.0,0.0,58,0.00,,---,0.00,0.00,VWS V14.01,2013-12-16 01:05:00,
2013-12-15 19:11:00,33.4,20.3,29.88,NE,45,0.0,0.0,58,0.00,,---,0.00,0.00,VWS V14.01,2013-12-16 01:11:00,
2013-12-15 19:16:00,33.4,20.3,29.88,NE,45,0.0,0.0,58,0.00,,---,0.00,0.00,VWS V14.01,2013-12-16 01:16:00,
2013-12-15 19:21:00,33.3,20.5,29.88,NE,45,0.0,0.0,59,0.00,,---,0.00,0.00,VWS V14.01,2013-12-16 01:21:00,
2013-12-15 19:26:00,33.3,20.5,29.88,NE,45,0.9,0.9,59,0.00,,---,0.00,0.00,VWS V14.01,2013-12-16 01:26:00,
2013-12-15 19:31:00,33.1,20.3,29.88,ENE,68,0.0,1.6,59,0.00,,---,0.00,0.00,VWS V14.01,2013-12-16 01:31:00,
2013-12-15 19:36:00,33.1,20.3,29.88,ENE,68,0.0,0.0,59,0.00,,---,0.00,0.00,VWS V14.01,2013-12-16 01:36:00,
2013-12-15 19:41:00,33.1,20.3,29.88,ENE,68,0.0,0.0,59,0.00,,---,0.00,0.00,VWS V14.01,2013-12-16 01:41:00,
2013-12-15 19:46:00,32.5,19.4,29.88,ENE,68,0.0,0.0,58,0.00,,---,0.00,0.00,VWS V14.01,2013-12-16 01:46:00,
2013-12-15 19:51:00,32.4,19.2,29.88,ENE,68,0.0,0.0,58,0.00,,---,0.00,0.00,VWS V14.01,2013-12-16 01:51:00,
2013-12-15 19:56:00,32.2,19.1,29.88,ENE,68,0.0,0.0,58,0.00,,---,0.00,0.00,VWS V14.01,2013-12-16 01:56:00,
2013-12-15 20:01:00,31.8,19.1,29.88,East,90,0.0,0.0,59,0.00,,---,0.00,0.00,VWS V14.01,2013-12-16 02:01:00,
2013-12-15 20:06:00,31.8,19.5,29.88,ESE,112,3.1,3.1,60,0.00,,---,0.00,0.00,VWS V14.01,2013-12-16 02:06:00,
2013-12-15 20:11:00,31.8,19.9,29.88,ESE,112,3.4,3.4,61,0.00,,---,0.00,0.00,VWS V14.01,2013-12-16 02:11:00,
2013-12-15 20:16:00,32.2,21.0,29.88,ESE,112,0.0,3.8,63,0.00,,---,0.00,0.00,VWS V14.01,2013-12-16 02:16:00,
2013-12-15 20:21:00,32.2,21.0,29.88,ESE,112,3.6,4.0,63,0.00,,---,0.00,0.00,VWS V14.01,2013-12-16 02:21:00,
2013-12-15 20:26:00,32.2,21.0,29.88,ESE,112,0.0,0.0,63,0.00,,---,0.00,0.00,VWS V14.01,2013-12-16 02:26:00,
2013-12-15 20:31:00,32.2,21.4,29.88,ESE,112,2.7,2.7,64,0.00,,---,0.00,0.00,VWS V14.01,2013-12-16 02:31:00,
2013-12-15 20:36:00,32.2,21.4,29.85,ESE,112,0.0,0.0,64,0.00,,---,0.00,0.00,VWS V14.01,2013-12-16 02:36:00,
2013-12-15 20:41:00,32.2,21.4,29.85,East,90,0.0,0.0,64,0.00,,---,0.00,0.00,VWS V14.01,2013-12-16 02:41:00,
2013-12-15 20:46:00,32.2,21.4,29.85,East,90,0.0,0.0,64,0.00,,---,0.00,0.00,VWS V14.01,2013-12-16 02:46:00,
2013-12-15 20:51:00,32.0,21.2,29.88,ENE,68,0.0,0.0,64,0.00,,---,0.00,0.00,VWS V14.01,2013-12-16 02:51:00,
2013-12-15 20:56:00,32.0,21.2,29.88,ESE,112,0.0,0.0,64,0.00,,---,0.00,0.00,VWS V14.01,2013-12-16 02:56:00,
2013-12-15 21:01:00,32.0,21.2,29.88,ENE,68,1.3,1.3,64,0.00,,---,0.00,0.00,VWS V14.01,2013-12-16 03:01:00,
2013-12-15 21:06:00,32.0,21.2,29.88,ESE,112,0.0,0.0,64,0.00,,---,0.00,0.00,VWS V14.01,2013-12-16 03:06:00,
2013-12-15 21:11:00,31.6,20.9,29.85,ESE,112,0.0,0.0,64,0.00,,---,0.00,0.00,VWS V14.01,2013-12-16 03:11:00,
2013-12-15 21:16:00,31.6,21.2,29.85,ESE,112,0.0,0.0,65,0.00,,---,0.00,0.00,VWS V14.01,2013-12-16 03:16:00,
2013-12-15 21:21:00,31.5,21.1,29.85,ESE,112,0.0,0.0,65,0.00,,---,0.00,0.00,VWS V14.01,2013-12-16 03:21:00,
2013-12-15 21:27:00,31.5,21.1,29.85,ESE,112,0.0,0.0,65,0.00,,---,0.00,0.00,VWS V14.01,2013-12-16 03:27:00,
2013-12-15 21:32:00,31.3,20.9,29.85,ESE,112,0.0,0.0,65,0.00,,---,0.00,0.00,VWS V14.01,2013-12-16 03:32:00,
2013-12-15 21:37:00,31.1,21.1,29.85,ESE,112,0.0,0.0,66,0.00,,---,0.00,0.00,VWS V14.01,2013-12-16 03:37:00,